Home > Weather > Lippstadt > Past weeks

Flag for Germany Past Weather in Lippstadt, North Rhine-Westphalia, Germany — Yesterday and Last 2 Weeks

Now
68 °F

Passing clouds.


Feels Like: 68 °F
Forecast: 53 / 72 °F
Wind: 6 mph from Northeast

Location: Paderborn / Lippstadt

Current Time: May 26, 2016 at 6:38:48 PM

Latest Report: May 26, 2016 at 5:50 PM


Visibility: N/A

Pressure: 30.01 "Hg

Humidity: 46%

Dew Point: 46 °F

Location of LippstadtLocation

Past Weather in Lippstadt — Graph

°F

Lippstadt Temperature Yesterday

Maximum temperature yesterday: 59 °F (at 3:20 PM)
Minimum temperature yesterday: 48 °F (at 12:20 AM)
Average temperature yesterday: 53 °F

High & Low Weather Summary for the Past Weeks

 TemperatureHumidityPressure
High79 °F (May 22, 1:50 PM)100% (May 13, 3:20 AM)30.09 "Hg (May 13, 3:20 AM)
Low37 °F (May 16, 4:20 AM)27% (May 13, 3:50 PM)29.50 "Hg (May 12, 5:50 PM)
Average56 °F73%29.89 "Hg
* Reported May 11 5:20 PM — May 26 5:20 PM, Lippstadt, Weather by CustomWeather, © 2016

Note: Actual official high and low records may vary slightly from our data, if they occured in-between our weather recording intervals... More about our weather records

Advertising

Lippstadt Weather History for the Previous 24 Hours

Scroll right to see more
 ConditionsComfort  
Time TempWeatherWind HumidityBarometerVisibility
5:20 PM
Thu, May 26
68 °FScattered clouds.3 mph43%30.01 "HgN/A
4:50 PM66 °FScattered clouds.5 mph49%30.01 "HgN/A
4:20 PM68 °FScattered clouds.5 mph46%30.01 "HgN/A
3:50 PM66 °FScattered clouds.3 mph49%30.01 "HgN/A
3:20 PM66 °FScattered clouds.5 mph52%30.01 "HgN/A
2:50 PM66 °FScattered clouds.6 mph52%30.04 "HgN/A
2:20 PM64 °FScattered clouds.5 mph52%30.01 "HgN/A
1:50 PM64 °FScattered clouds.5 mph52%30.04 "Hg6 mi
1:20 PM64 °FScattered clouds.3 mph52%30.04 "Hg6 mi
12:50 PM63 °FScattered clouds.3 mph56%30.04 "Hg5 mi
12:20 PM64 °FScattered clouds.3 mph60%30.04 "Hg5 mi
11:50 AM61 °FScattered clouds.5 mph59%30.04 "Hg5 mi
11:20 AM61 °FScattered clouds.3 mph55%30.04 "Hg5 mi
10:50 AM61 °FScattered clouds.5 mph63%30.04 "Hg5 mi
10:20 AM61 °FScattered clouds.3 mph63%30.04 "Hg5 mi
9:50 AM61 °FClear.6 mph63%30.04 "Hg5 mi
9:20 AM59 °FClear.5 mph72%30.04 "Hg5 mi
8:50 AM57 °FClear.5 mph77%30.04 "Hg5 mi
8:20 AM57 °FClear.3 mph77%30.04 "Hg5 mi
7:50 AM55 °FClear.3 mph88%30.01 "Hg5 mi
7:20 AM54 °FClear.3 mph100%30.01 "Hg5 mi
6:50 AM54 °FClear.2 mph94%30.01 "Hg5 mi
6:20 AM54 °FClear.2 mph94%30.01 "Hg5 mi
5:50 AM52 °FClear.1 mph100%30.01 "Hg4 mi
5:20 AM52 °FPassing clouds.2 mph100%30.01 "Hg6 mi
4:50 AM52 °FClear.2 mph100%30.01 "Hg6 mi
4:20 AM54 °FPassing clouds.6 mph100%30.01 "HgN/A
3:50 AM54 °FClear.5 mph100%30.01 "Hg10 mi
3:20 AM54 °FClear.3 mph100%30.01 "Hg10 mi
2:50 AM54 °FClear.5 mph100%30.01 "Hg10 mi
2:20 AM54 °FPassing clouds.5 mph100%30.01 "HgN/A
1:50 AM54 °FClear.3 mph100%30.01 "Hg10 mi
1:20 AM54 °FClear.5 mph100%30.01 "Hg10 mi
12:50 AM54 °FClear.3 mph100%30.01 "Hg10 mi
12:20 AM54 °FClear.3 mph100%30.01 "Hg10 mi
11:50 PM
Wed, May 25
55 °FClear.5 mph94%30.01 "Hg10 mi
11:20 PM55 °FClear.5 mph94%30.01 "Hg10 mi
10:50 PM55 °FPassing clouds.3 mph100%30.01 "HgN/A
10:20 PM55 °FPartly sunny.1 mph94%30.01 "HgN/A
9:50 PM55 °FPartly sunny.1 mph94%30.01 "Hg6 mi
9:20 PM57 °FPartly sunny.1 mph77%29.98 "HgN/A
8:50 PM55 °FPartly sunny.1 mph88%29.98 "HgN/A
8:20 PM57 °FPartly sunny.1 mph82%29.98 "HgN/A
7:50 PM57 °FPartly sunny.2 mph77%29.98 "HgN/A
7:20 PM57 °FPartly sunny.2 mph82%29.98 "HgN/A
6:50 PM57 °FPartly sunny.3 mph77%29.98 "HgN/A
6:20 PM57 °FPartly sunny.2 mph77%29.98 "HgN/A
Weather by CustomWeather, © 2016

See weather overviewHow to use our weather pages